| time (UTC) | temp F | wind direction | speed MPH | gust MPH | rain 1hr in | rain 24hr in | rain mn in | humidity % | barometer mb |
| 20260905004542 | 64 | 292 | 13.0 | 18.0 | 0.00 | 0.00 | 0.00 | 43 | 1015.8 |
| 20260905003042 | 66 | 311 | 10.0 | 16.0 | 0.00 | 0.00 | 0.00 | 42 | 1016.0 |
| 20260905001548 | 66 | 295 | 10.0 | 14.0 | 0.00 | 0.00 | 0.00 | 42 | 1016.0 |
| 20260905000041 | 66 | 304 | 9.0 | 17.0 | 0.00 | 0.00 | 0.00 | 42 | 1015.9 |
| 20260904234538 | 66 | 281 | 13.0 | 19.0 | 0.00 | 0.00 | 0.00 | 40 | 1015.7 |
| 20260904233046 | 66 | 284 | 12.0 | 21.0 | 0.00 | 0.00 | 0.00 | 41 | 1015.7 |
| 20260904231540 | 66 | 315 | 13.0 | 20.0 | 0.00 | 0.00 | 0.00 | 39 | 1015.6 |
| 20260904230100 | 66 | 279 | 16.0 | 21.0 | 0.00 | 0.00 | 0.00 | 40 | 1015.3 |
| 20260904224535 | 67 | 294 | 15.0 | 25.0 | 0.00 | 0.00 | 0.00 | 39 | 1015.3 |
| 20260904223033 | 67 | 265 | 12.0 | 22.0 | 0.00 | 0.00 | 0.00 | 40 | 1015.1 |
| 20260904221530 | 64 | 285 | 17.0 | 23.0 | 0.00 | 0.00 | 0.00 | 41 | 1014.9 |
| 20260904220030 | 66 | 290 | 14.0 | 23.0 | 0.00 | 0.00 | 0.00 | 40 | 1014.7 |
| 20260904214527 | 66 | 296 | 15.0 | 23.0 | 0.00 | 0.00 | 0.00 | 39 | 1014.6 |
| 20260904213030 | 66 | 271 | 15.0 | 23.0 | 0.00 | 0.00 | 0.00 | 39 | 1014.5 |
| 20260904211525 | 65 | 308 | 17.0 | 25.0 | 0.00 | 0.00 | 0.00 | 40 | 1014.4 |
| 20260904210023 | 66 | 281 | 15.0 | 24.0 | 0.00 | 0.00 | 0.00 | 42 | 1014.2 |
| 20260904204529 | 63 | 319 | 12.0 | 20.0 | 0.00 | 0.00 | 0.00 | 45 | 1014.0 |
| 20260904203020 | 63 | 275 | 14.0 | 20.0 | 0.00 | 0.00 | 0.00 | 45 | 1013.9 |
| 20260904201514 | 61 | 254 | 15.0 | 20.0 | 0.00 | 0.00 | 0.00 | 48 | 1014.0 |
| 20260904200013 | 60 | 277 | 14.0 | 20.0 | 0.00 | 0.00 | 0.00 | 50 | 1013.7 |
| 20260904194510 | 60 | 267 | 14.0 | 19.0 | 0.00 | 0.00 | 0.00 | 50 | 1013.4 |
| 20260904193109 | 60 | 259 | 13.0 | 20.0 | 0.00 | 0.00 | 0.00 | 51 | 1013.3 |
| 20260904191507 | 59 | 269 | 14.0 | 19.0 | 0.00 | 0.00 | 0.00 | 52 | 1013.2 |
| 20260904190006 | 59 | 264 | 14.0 | 19.0 | 0.00 | 0.00 | 0.00 | 53 | 1013.1 |
| 20260904184503 | 59 | 261 | 10.0 | 17.0 | 0.00 | 0.00 | 0.00 | 55 | 1012.8 |
| 20260904183002 | 58 | 264 | 9.0 | 15.0 | 0.00 | 0.00 | 0.00 | 57 | 1012.7 |
| 20260904181501 | 57 | 268 | 9.0 | 15.0 | 0.00 | 0.00 | 0.00 | 57 | 1012.7 |
| 20260904180002 | 56 | 250 | 10.0 | 14.0 | 0.00 | 0.00 | 0.00 | 59 | 1012.6 |
| 20260904174559 | 56 | 291 | 10.0 | 15.0 | 0.00 | 0.00 | 0.00 | 58 | 1012.2 |
| 20260904173102 | 55 | 279 | 12.0 | 15.0 | 0.00 | 0.00 | 0.00 | 60 | 1012.3 |
| 20260904171613 | 55 | 246 | 10.0 | 15.0 | 0.00 | 0.00 | 0.00 | 61 | 1012.2 |
| 20260904170054 | 54 | 250 | 13.0 | 19.0 | 0.00 | 0.00 | 0.00 | 62 | 1012.0 |
| 20260904164600 | 54 | 269 | 8.0 | 14.0 | 0.00 | 0.00 | 0.00 | 63 | 1011.8 |
| 20260904163050 | 55 | 265 | 10.0 | 13.0 | 0.00 | 0.00 | 0.00 | 60 | 1011.8 |
| 20260904161550 | 54 | 229 | 9.0 | 16.0 | 0.00 | 0.00 | 0.00 | 63 | 1011.5 |
| 20260904160046 | 55 | 246 | 9.0 | 15.0 | 0.00 | 0.00 | 0.00 | 62 | 1011.7 |
| 20260904154544 | 54 | 269 | 6.0 | 21.0 | 0.00 | 0.00 | 0.00 | 66 | 1011.1 |
| 20260904153103 | 54 | 284 | 6.0 | 15.0 | 0.00 | 0.00 | 0.00 | 65 | 1010.7 |
| 20260904151546 | 55 | 21 | 8.0 | 11.0 | 0.00 | 0.00 | 0.00 | 62 | 1010.3 |
| 20260904150054 | 57 | 55 | 5.0 | 7.0 | 0.00 | 0.00 | 0.00 | 58 | 1010.3 |
| 20260904144542 | 57 | 74 | 4.0 | 8.0 | 0.00 | 0.00 | 0.00 | 54 | 1010.5 |
| 20260904143042 | 54 | 257 | 1.0 | 7.0 | 0.00 | 0.00 | 0.00 | 60 | 1010.4 |
| 20260904141540 | 54 | 67 | 4.0 | 6.0 | 0.00 | 0.00 | 0.00 | 62 | 1010.3 |
| 20260904140042 | 54 | 67 | 3.0 | 6.0 | 0.00 | 0.00 | 0.00 | 62 | 1010.4 |
| 20260904134539 | 53 | 85 | 5.0 | 11.0 | 0.00 | 0.00 | 0.00 | 62 | 1010.3 |
| 20260904133045 | 53 | 57 | 5.0 | 7.0 | 0.00 | 0.00 | 0.00 | 61 | 1010.4 |
| 20260904131545 | 51 | 57 | 3.0 | 6.0 | 0.00 | 0.00 | 0.00 | 64 | 1010.4 |
| 20260904130036 | 51 | 57 | 4.0 | 9.0 | 0.00 | 0.00 | 0.00 | 64 | 1010.3 |
| 20260904124533 | 51 | 57 | 5.0 | 7.0 | 0.00 | 0.00 | 0.00 | 62 | 1010.2 |
| 20260904123032 | 53 | 46 | 5.0 | 10.0 | 0.00 | 0.00 | 0.00 | 60 | 1010.3 |
| 20260904121532 | 51 | 49 | 6.0 | 9.0 | 0.00 | 0.00 | 0.00 | 62 | 1010.3 |
| 20260904120028 | 52 | 67 | 6.0 | 9.0 | 0.00 | 0.00 | 0.00 | 61 | 1010.4 |
| 20260904114527 | 55 | 61 | 7.0 | 10.0 | 0.00 | 0.00 | 0.00 | 56 | 1010.4 |
| 20260904113038 | 59 | 85 | 11.0 | 14.0 | 0.00 | 0.00 | 0.00 | 48 | 1010.3 |
| 20260904111535 | 58 | 96 | 9.0 | 13.0 | 0.00 | 0.00 | 0.00 | 50 | 1010.4 |
| 20260904110025 | 59 | 102 | 11.0 | 16.0 | 0.00 | 0.00 | 0.00 | 49 | 1010.4 |
| 20260904104523 | 59 | 91 | 11.0 | 15.0 | 0.00 | 0.00 | 0.00 | 49 | 1010.4 |
| 20260904103020 | 57 | 98 | 11.0 | 15.0 | 0.00 | 0.00 | 0.00 | 51 | 1010.7 |
| 20260904101520 | 56 | 103 | 11.0 | 15.0 | 0.00 | 0.00 | 0.00 | 53 | 1010.9 |
| 20260904100020 | 56 | 103 | 11.0 | 16.0 | 0.00 | 0.00 | 0.00 | 54 | 1010.9 |
| 20260904094529 | 56 | 96 | 12.0 | 16.0 | 0.00 | 0.01 | 0.00 | 55 | 1010.9 |
| 20260904093016 | 54 | 92 | 10.0 | 13.0 | 0.00 | 0.01 | 0.00 | 58 | 1011.1 |
| 20260904091514 | 55 | 93 | 9.0 | 12.0 | 0.00 | 0.01 | 0.00 | 57 | 1011.2 |
| 20260904090012 | 52 | 88 | 6.0 | 8.0 | 0.00 | 0.01 | 0.00 | 61 | 1011.4 |
| 20260904084508 | 53 | 86 | 6.0 | 8.0 | 0.00 | 0.01 | 0.00 | 59 | 1011.4 |
| 20260904083005 | 55 | 48 | 3.0 | 6.0 | 0.00 | 0.01 | 0.00 | 56 | 1011.6 |
| 20260904081505 | 55 | 48 | 4.0 | 6.0 | 0.00 | 0.01 | 0.00 | 55 | 1011.6 |
| 20260904080100 | 56 | 31 | 2.0 | 4.0 | 0.00 | 0.01 | 0.00 | 53 | 1011.7 |
| 20260904074557 | 57 | 31 | 4.0 | 5.0 | 0.00 | 0.01 | 0.00 | 52 | 1011.7 |
| 20260904073109 | 57 | 31 | 3.0 | 5.0 | 0.00 | 0.01 | 0.00 | 52 | 1011.9 |
| 20260904071555 | 57 | 239 | 3.0 | 4.0 | 0.00 | 0.01 | 0.00 | 52 | 1011.8 |
| 20260904070055 | 57 | 239 | 2.0 | 3.0 | 0.00 | 0.01 | 0.00 | 53 | 1011.8 |
| 20260904064552 | 58 | 239 | 1.0 | 3.0 | 0.00 | 0.01 | 0.00 | 51 | 1012.0 |
| 20260904063103 | 57 | 239 | 2.0 | 3.0 | 0.00 | 0.01 | 0.00 | 52 | 1012.1 |
| 20260904061548 | 57 | 239 | 1.0 | 3.0 | 0.00 | 0.01 | 0.00 | 53 | 1012.4 |
| 20260904060058 | 58 | 239 | 2.0 | 4.0 | 0.00 | 0.01 | 0.00 | 51 | 1012.5 |
| 20260904054555 | 59 | 239 | 2.0 | 3.0 | 0.00 | 0.01 | 0.01 | 50 | 1012.6 |
| 20260904053046 | 57 | 239 | 1.0 | 3.0 | 0.00 | 0.01 | 0.01 | 54 | 1012.5 |
| 20260904051543 | 56 | 239 | 0.0 | 0.0 | 0.00 | 0.01 | 0.01 | 56 | 1012.7 |
| 20260904050042 | 56 | 239 | 1.0 | 3.0 | 0.00 | 0.01 | 0.01 | 59 | 1012.4 |
| 20260904044547 | 56 | 239 | 2.0 | 5.0 | 0.00 | 0.01 | 0.01 | 57 | 1012.2 |
| 20260904043044 | 56 | 239 | 2.0 | 3.0 | 0.00 | 0.01 | 0.01 | 56 | 1012.4 |
| 20260904041540 | 55 | 239 | 2.0 | 3.0 | 0.00 | 0.01 | 0.01 | 56 | 1012.6 |
| 20260904040041 | 54 | 239 | 0.0 | 2.0 | 0.00 | 0.01 | 0.01 | 58 | 1012.4 |
| 20260904034539 | 53 | 239 | 2.0 | 4.0 | 0.00 | 0.01 | 0.01 | 60 | 1012.6 |
| 20260904033138 | 53 | 239 | 3.0 | 5.0 | 0.00 | 0.01 | 0.01 | 60 | 1012.7 |
| 20260904031539 | 53 | 239 | 3.0 | 5.0 | 0.00 | 0.01 | 0.01 | 61 | 1012.5 |
| 20260904030037 | 53 | 239 | 3.0 | 5.0 | 0.00 | 0.01 | 0.01 | 61 | 1012.5 |
| 20260904024539 | 53 | 239 | 3.0 | 4.0 | 0.00 | 0.02 | 0.01 | 61 | 1012.3 |
| 20260904023033 | 55 | 239 | 3.0 | 7.0 | 0.00 | 0.02 | 0.01 | 58 | 1012.2 |
| 20260904021533 | 58 | 239 | 3.0 | 9.0 | 0.00 | 0.02 | 0.01 | 53 | 1011.9 |
| 20260904020032 | 60 | 257 | 8.0 | 14.0 | 0.00 | 0.02 | 0.01 | 49 | 1011.9 |
| 20260904014553 | 60 | 279 | 8.0 | 13.0 | 0.00 | 0.02 | 0.01 | 49 | 1011.8 |
| 20260904013033 | 61 | 279 | 8.0 | 11.0 | 0.00 | 0.02 | 0.01 | 46 | 1012.0 |
| 20260904011530 | 64 | 251 | 8.0 | 11.0 | 0.00 | 0.02 | 0.01 | 43 | 1011.9 |
| 20260904010030 | 65 | 252 | 10.0 | 15.0 | 0.00 | 0.02 | 0.01 | 40 | 1012.0 |